Location: Newark
(58.9986°N, 38.5006°E)
Time: 09:16:46
(UTC+00:00)

Explorer 7 - Pass Details

Date: 23 April 2021
Orbit: 484 x 677 km, 50.3° (Epoch: 11 May)

Event Time Altitude Azimuth Distance (km) Brightness Sun altitude
Rises 20:52:26 0° 264° (W) 2,750 10.4 -17.9°
Reaches altitude 10° 20:55:11 10° 245° (WSW) 1,892 9.4 -17.9°
Enters shadow 20:55:52 13° 238° (WSW) 1,730 9.1 -17.9°
